Location: Alladorf
(49.9620°N, 11.3790°E)
Time: 21:12:31
(UTC+00:00)

PSLV R/B - Pass Details

Date: 29 November 2020
Orbit: 568 x 597 km, 98.2° (Epoch: 24 January)

Event Time Altitude Azimuth Distance (km) Brightness Sun altitude
Rises 04:10:31 0° 154° (SSE) 2,807 7.8 -24.6°
Reaches altitude 10° 04:12:41 10° 151° (SSE) 1,907 7.0 -24.3°
Maximum altitude 04:16:45 59° 71° (ENE) 676 4.4 -23.6°
Enters shadow 04:18:37 30° 4° (N) 1,063 5.2 -23.3°
